Flag for Germany Weather past 2 weeks in Kamp-Lintfort, North Rhine-Westphalia, Germany

Now
47 °F

Overcast.


Feels Like: 42 °F
Forecast: 46 / 51 °F
Wind: 12 mph from Southwest

Location: Duesseldorf

Current Time: Dec 22, 2014 at 2:02:25 AM

Latest Report: Dec 22, 2014 at 1:00 AM


Visibility: 19 mi

Pressure: 30.20 "Hg

Humidity: 82%

Dew point: 42 °F

Location of Kamp-LintfortLocation

Historic Weather in Kamp-Lintfort — Graph

°F

Kamp-Lintfort temperature yesterday

Maximum temperature yesterday: 47 °F (at 11:00 PM)
Minimum temperature yesterday: 38 °F (at 7:00 AM)
Average temperature yesterday: 43 °F

Past Weeks' High & Low Weather Summary

 TemperatureHumidityPressure
High55 °F (Dec 18, 7:00 PM)100% (Dec 14, 6:00 AM)30.41 "Hg (Dec 14, 6:00 AM)
Low30 °F (Dec 14, 6:00 AM)65% (Dec 7, 3:00 PM)29.41 "Hg (Dec 12, 1:00 PM)
Average42 °F87%29.98 "Hg
* Reported Dec 7 1:00 AM — Dec 22 1:00 AM, Kamp-Lintfort, Weather by CustomWeather, © 2014

Note: Actual official high and low records may vary slightly from our data, if they occured in-between our weather recording intervals... More about our weather records

Advertising

Kamp-Lintfort weather history for previous 24 hours

 ConditionsComfort  
Time TempWeatherWind HumidityBarometerVisibility
1:00 AM
Dec 22
47 °FOvercast.12 mph82%30.20 "Hg19 mi
12:00 AM47 °FOvercast.9 mph83%30.23 "Hg17 mi
11:00 PM
Dec 21
47 °FOvercast.10 mph84%30.23 "Hg17 mi
9:00 PM46 °FOvercast.9 mph89%30.24 "Hg16 mi
8:00 PM46 °FDrizzle. Low clouds.9 mph92%30.26 "Hg7 mi
7:00 PM45 °FDrizzle. Low clouds.8 mph93%30.27 "Hg5 mi
6:00 PM45 °FDrizzle. Low clouds.8 mph95%30.27 "Hg4 mi
5:00 PM45 °FDrizzle. Overcast.9 mph89%30.28 "Hg7 mi
3:00 PM45 °FLight rain. Overcast.8 mph83%30.32 "Hg7 mi
2:00 PM45 °FLight rain. Overcast.8 mph81%30.34 "Hg16 mi
1:00 PM45 °FOvercast.8 mph83%30.37 "Hg16 mi
12:00 PM44 °FOvercast.8 mph83%30.38 "Hg15 mi
11:00 AM43 °FOvercast.8 mph85%30.41 "Hg11 mi
9:00 AM41 °FLow clouds.7 mph92%30.41 "Hg10 mi
8:00 AM38 °FPassing clouds.6 mph94%30.41 "Hg9 mi
7:00 AM38 °FPassing clouds.5 mph94%30.41 "Hg9 mi
6:00 AM40 °FQuite cool.5 mph92%30.40 "HgN/A
5:00 AM41 °FOvercast.5 mph89%30.40 "Hg12 mi
3:00 AM41 °FPassing clouds.3 mph86%30.40 "Hg16 mi
2:00 AM41 °FPassing clouds.6 mph86%30.37 "Hg16 mi
Weather by CustomWeather, © 2014

See weather overviewHow to use our weather pages